Regional Weather Roundup
Issued by NWS

Home | Current Version | Previous Version | Text Only | Print | Product List | Glossary Off
Versions: 1 2 3 4 5 6 7 8 9 10 11 12 13 14 15 16 17 18 19 20 21 22 23 24 25 26 27 28 29 30 31 32 33 34 35 36 37 38 39 40 41 42 43 44 45 46 47 48 49 50

000
ASUS43 KMPX 292310
RWRMN
WEATHER ROUNDUP FOR MINNESOTA
NATIONAL WEATHER SERVICE TWIN CITIES/CHANHASSEN MN
600 PM CDT THU SEP 29 2016


NOTE: "FAIR" INDICATES FEW OR NO CLOUDS BELOW 12,000 FEET WITH NO
SIGNIFICANT WEATHER AND/OR OBSTRUCTIONS TO VISIBILITY. N/A MEANS
CURRENT SKY AND/OR WEATHER CONDITIONS ARE NOT AVAILABLE.

MNZ060>063-068>070-300000-
   Twin Cities Metro

CITY           SKY/WX    TMP DP  RH WIND       PRES   REMARKS
TWIN CITIES    CLEAR     66  50  56 N8        30.39F
ST PAUL        CLEAR     66  51  58 NE8       30.40F
CRYSTAL        CLEAR     66  49  54 NE6       30.39F
BLAINE         CLEAR     66  52  59 NE5       30.40F
LAKEVILLE      CLEAR     64  52  63 NE6       30.39S
EDEN PRAIRIE   CLEAR     67  50  54 NE3       30.39S
LAKEVILLE      CLEAR     64  52  63 NE6       30.39S
SOUTH ST PAUL  CLEAR     67  50  54 N5        30.39S
LAKE ELMO      FAIR      64  52  63 N5        30.41S
$$
MNZ001>005-007-008-013>017-022>024-027-028-300000-
   Northwest Minnesota

CITY           SKY/WX    TMP DP  RH WIND       PRES   REMARKS
BEMIDJI        CLOUDY    57  46  67 SE7       30.44F
HALLOCK        SUNNY     64  48  55 S8        30.38F
ROSEAU         CLEAR     64  50  59 CALM      30.42S HAZE
WARROAD        PTCLDY    57  52  82 E12       30.44S
THIEF RVR FALL SUNNY     63  45  51 SE9       30.41S
CROOKSTON      SUNNY     64  46  52 S9        30.40S
FOSSTON        MOSUNNY   64  46  52 E5        30.42F
DETROIT LAKES  SUNNY     61  45  55 SE9       30.42F
MOORHEAD       SUNNY     64  45  48 S10       30.39F
PARK RAPIDS    CLOUDY    60  43  53 E7        30.43F
MAHNOMEN       FAIR      62  45  53 SE7       30.41S
$$
MNZ006-009>011-018-025>026-300000-
   North Central Minnesota

CITY           SKY/WX    TMP DP  RH WIND       PRES   REMARKS
BAUDETTE       CLOUDY    58  45  62 S6        30.45F
FLAG ISLAND    CLEAR     57  46  67 E5        30.44S
INTL FALLS     CLOUDY    57  49  74 SE5       30.47S
WASKISH        CLOUDY    57  48  72 SE5       30.46S
BIG FORK       CLOUDY    57  46  67 E3        30.47S
LONGVILLE      CLOUDY    57  50  77 CALM      30.44F
GRAND RAPIDS   CLOUDY    58  48  69 CALM      30.47F
CRANE LAKE     CLOUDY    54  50  87 CALM      30.50F
ORR            CLOUDY    55  45  67 CALM      30.46F
COOK           CLOUDY    55  48  76 CALM      30.48F
WALKER         CLOUDY    56  47  71 E3        30.44F
$$
MNZ012-019>021-037-300000-
   Northeast Minnesota

CITY           SKY/WX    TMP DP  RH WIND       PRES   REMARKS
DULUTH         PTCLDY    56  47  71 E8        30.47S
ELY            CLOUDY    55  46  71 CALM      30.48S
HIBBING        CLOUDY    57  47  69 E3        30.46F
EVELETH        CLOUDY    58  46  65 CALM      30.48S
DULUTH HARBOR  CLEAR     55  52  88 NE13      30.48S
TWO HARBORS    CLEAR     59  52  77 E9        30.46F
SILVER BAY     CLEAR     55  50  82 E3        30.47F
GRAND MARAIS     N/A     57  53  86 E3        30.49S
G MARAIS ARPRT CLEAR     52  46  82 SE3       30.50F
$$
MNZ029>031-032-039>041-046>048-054>057-064-300000-
   West Central Minnesota

CITY           SKY/WX    TMP DP  RH WIND       PRES   REMARKS
FERGUS FALLS   SUNNY     63  46  55 SE7       30.42S
MORRIS         SUNNY     64  46  52 E10       30.39S
ALEXANDRIA     SUNNY     61  46  57 E7        30.42F
ELBOW LAKE     FAIR      61  47  59 SE10      30.41S
WADENA         PTCLDY    59  46  63 E7        30.42F
GLENWOOD       SUNNY     63  46  55 E8        30.42S
BENSON         SUNNY     64  46  52 SE6       30.40S
ORTONVILLE     SUNNY     64  46  52 SE8       30.38F
MADISON        SUNNY     68  50  52 SE7       30.38F
WILLMAR        FAIR      64  50  59 E6        30.41F
$$
MNZ033>034-036-042>043-049>051-058-059-300000-
   Central Minnesota

CITY           SKY/WX    TMP DP  RH WIND       PRES   REMARKS
ST CLOUD       PTCLDY    64  50  60 E6        30.41F
SAUK CENTRE    FAIR      61  48  62 E5        30.42S
PAYNESVILLE    CLEAR     63  48  58 NE6       30.41F
AITKIN         CLEAR     61  45  55 CALM      30.43S
PINE RIVER     CLOUDY    57  48  72 E3        30.46F
BRAINERD       PTCLDY    61  48  62 E3        30.44F
STAPLES        CLOUDY    57  46  67 CALM      30.43F
LONG PRAIRIE   FAIR      59  46  63 NE5       30.43S
LITTLE FALLS   CLEAR     61  46  59 CALM      30.43S
LITCHFIELD     CLEAR     64  52  63 E7        30.41F
BUFFALO        CLEAR     64  49  57 NE6       30.41F
MAPLE LAKE     CLEAR     65  53  65 E5        30.42S
HUTCHINSON     CLEAR     65  51  61 NE8       30.41S
$$
MNZ037-044-045-052-053-300000-
   East Central Minnesota

CITY           SKY/WX    TMP DP  RH WIND       PRES   REMARKS
PRINCETON        N/A     66  52  59 NE3       30.42S
MORA           PTCLDY    63  50  63 CALM      30.44S
CAMBRIDGE      CLEAR     66  52  59 NE5       30.40S
MOOSE LAKE     CLEAR     59  48  67 NE7       30.44S
HINCKLEY       FAIR      63  52  67 NE8       30.43S
CLOQUET        CLEAR     55  45  67 E9        30.46F
MCGREGOR       PTCLDY    61  46  59 E3        30.45S
$$
MNZ071>073-080-081-089-090-097-098-300000-
   Southwest Minnesota

CITY           SKY/WX    TMP DP  RH WIND       PRES   REMARKS
MONTEVIDEO     SUNNY     66  48  52 SE9       30.40S
GRANITE FALLS  SUNNY     67  49  52 E8        30.40S
CANBY          SUNNY     65  47  51 SE7       30.39F
MARSHALL       SUNNY     65  49  56 E6        30.39S
REDWOOD FALLS  SUNNY     66  47  50 NE7       30.39S
OLIVIA         SUNNY     64  48  55 E6        30.39S
PIPESTONE      SUNNY     66  45  45 E5        30.37S
WINDOM         SUNNY     66  46  48 NE6       30.39S
WORTHINGTON    SUNNY     65  49  56 E8        30.38S
JACKSON        SUNNY     64  45  48 E6        30.39S
TRACY          SUNNY     66  51  57 E5        30.39S
SLAYTON        SUNNY     66  46  48 E5        30.39S
$$
MNZ065>067-074>077-082>085-091>093-300000-
   South Central Minnesota

CITY           SKY/WX    TMP DP  RH WIND       PRES   REMARKS
MANKATO        CLEAR     66  49  54 NE6       30.39F
NEW ULM        SUNNY     64  46  52 NE5       30.38F
ST JAMES       SUNNY     66  48  52 NE3       30.39S
FAIRMONT       SUNNY     67  48  50 NE6       30.38S
GLENCOE        CLEAR     64  53  67 CALM      30.39F
FARIBAULT      CLEAR     66  48  52 N5        30.39S
OWATONNA       CLEAR     66  48  52 N8        30.38S
WASECA         CLEAR     64  46  52 N7        30.39S
ALBERT LEA     CLEAR     68  46  45 N8        30.37S
$$
MNZ078>079-086>088-094>096-300000-
   Southeast Minnesota

CITY           SKY/WX    TMP DP  RH WIND       PRES   REMARKS
ROCHESTER      CLEAR     66  51  58 N9        30.38S
RED WING       CLEAR     70  48  46 N5        30.36F
STANTON        CLEAR     68  50  53 N6        30.37F
DODGE CENTER   CLEAR     66  48  52 N8        30.38S
WINONA         CLEAR     70  52  52 N3        30.36S
AUSTIN         CLEAR     66  48  52 NE6       30.36S
PRESTON        CLEAR     64  50  59 NE7       30.36S
$$
ABBREVIATIONS USED IN REMARKS
   TC - TEMPERATURES IN CELSIUS
  WCI - WIND CHILL INDEX
   HX - HEAT INDEX
  VSB - VISIBILITY
$$



USA.gov is the U.S. government's official web portal to all federal, state and local government web resources and services.